Date String (YYYY-MM-DD hh:mm:ss) UTC,Instrument flags,Ambient pressure (hPa),Sample flow (lpm),Bypass flow (lpm),Sample temperature (°C),Ambient temperature (°C),ASC tube jacket temperature (°C),LED temperature (°C),Box temperature (°C),Sample RH (%),Span deviation,Mass concentration (μg/m³),Mass concentration (μg/m³),Mass concentration (μg/m³)
DateTimeUTC,F1_M11,P_M11,Q1_M11,Q2_M11,T1_M11,T2_M11,T3_M11,T4_M11,T5_M11,U1_M11,ZSPAN_M11,X0_M11,X2_M11,X1_M11
2022-05-18 02:00:00,,0825.6,5.01,0.00,29.6,28.5,00.0,38.5,31.5,17.8,0000.0,0015.56,0004.12,0003.05
2022-05-18 02:01:00,,0825.6,5.00,0.00,29.6,26.4,00.0,38.5,31.5,17.7,0000.0,0015.15,0004.10,0002.99
2022-05-18 02:02:00,,0825.6,5.02,0.00,29.6,25.3,00.0,38.4,31.3,17.6,0000.0,0014.24,0004.05,0002.91
2022-05-18 02:03:00,,0825.6,5.00,0.00,29.5,25.6,00.0,38.4,31.2,17.5,0000.0,0013.09,0003.97,0002.82
2022-05-18 02:04:00,,0825.7,5.00,0.00,29.4,26.0,00.0,38.4,31.1,17.5,0000.0,0012.72,0003.91,0002.74
2022-05-18 02:05:00,,0825.7,5.00,0.00,29.4,26.5,00.0,38.4,31.1,17.6,0000.0,0013.09,0003.91,0002.65
2022-05-18 02:06:00,,0825.7,4.99,0.00,29.4,26.9,00.0,38.4,31.2,17.7,0000.0,0012.95,0003.86,0002.59
2022-05-18 02:07:00,,0825.7,4.99,0.00,29.4,27.2,00.0,38.4,31.2,17.8,0000.0,0012.84,0003.84,0002.51
2022-05-18 02:08:00,,0825.7,5.00,0.00,29.4,27.5,00.0,38.4,31.2,17.8,0000.0,0011.81,0003.76,0002.41
2022-05-18 02:09:00,,0825.7,5.02,0.00,29.4,27.7,00.0,38.4,31.3,17.6,0000.0,0010.85,0003.69,0002.32
2022-05-18 02:10:00,,0825.7,5.00,0.00,29.4,27.9,00.0,38.4,31.3,17.6,0000.0,0010.83,0003.69,0002.24
2022-05-18 02:11:00,,0825.8,5.00,0.00,29.5,28.1,00.0,38.4,31.3,17.6,0000.0,0010.28,0003.64,0002.17
2022-05-18 02:12:00,,0825.8,5.00,0.00,29.5,28.2,00.0,38.4,31.4,17.6,0000.0,0009.23,0003.53,0002.09
2022-05-18 02:13:00,,0825.8,5.01,0.00,29.5,28.3,00.0,38.5,31.4,17.6,0000.0,0009.13,0003.48,0002.02
2022-05-18 02:14:00,,0825.9,5.00,0.00,29.5,28.4,00.0,38.5,31.5,17.5,0000.0,0009.09,0003.43,0001.97
2022-05-18 02:15:00,,0825.9,4.99,0.00,29.6,28.5,00.0,38.5,31.5,17.5,0000.0,0009.08,0003.41,0001.96
2022-05-18 02:16:00,,0825.9,5.00,0.00,29.6,28.6,00.0,38.5,31.5,17.5,0000.0,0009.31,0003.40,0001.95
2022-05-18 02:17:00,,0825.9,5.00,0.00,29.6,28.7,00.0,38.5,31.6,17.5,0000.0,0009.23,0003.39,0001.93
2022-05-18 02:18:00,,0825.9,5.01,0.00,29.7,28.0,00.0,38.5,31.6,17.4,0000.0,0009.21,0003.38,0001.93
2022-05-18 02:19:00,,0825.9,5.00,0.00,29.6,25.7,00.0,38.5,31.4,17.5,0000.0,0009.56,0003.40,0001.93
2022-05-18 02:20:00,,0825.9,5.00,0.00,29.6,25.5,00.0,38.4,31.3,17.6,0000.0,0009.87,0003.44,0001.93
2022-05-18 02:21:00,,0825.9,5.00,0.00,29.5,25.8,00.0,38.4,31.2,17.6,0000.0,0009.88,0003.44,0001.93
2022-05-18 02:22:00,,0825.9,5.00,0.00,29.4,26.2,00.0,38.4,31.1,17.7,0000.0,0009.69,0003.42,0001.93
2022-05-18 02:23:00,,0825.8,5.00,0.00,29.4,26.6,00.0,38.4,31.2,17.8,0000.0,0009.61,0003.44,0001.94
2022-05-18 02:24:00,,0825.8,5.00,0.00,29.4,27.0,00.0,38.4,31.2,17.7,0000.0,0009.29,0003.45,0001.96
2022-05-18 02:25:00,,0825.8,5.01,0.00,29.4,27.3,00.0,38.4,31.2,17.8,0000.0,0009.05,0003.42,0001.96
2022-05-18 02:26:00,,0825.8,5.01,0.00,29.4,27.6,00.0,38.4,31.3,17.7,0000.0,0009.01,0003.42,0001.95
2022-05-18 02:27:00,,0825.8,4.99,0.00,29.4,27.8,00.0,38.4,31.3,17.7,0000.0,0008.46,0003.38,0001.94
2022-05-18 02:28:00,,0825.7,5.00,0.00,29.5,28.0,00.0,38.5,31.4,17.7,0000.0,0008.34,0003.36,0001.94
2022-05-18 02:29:00,,0825.7,4.99,0.00,29.5,28.1,00.0,38.5,31.4,17.7,0000.0,0008.38,0003.36,0001.94
2022-05-18 02:30:00,,0825.7,5.00,0.00,29.5,28.3,00.0,38.5,31.4,17.7,0000.0,0008.08,0003.33,0001.92
2022-05-18 02:31:00,,0825.6,5.01,0.00,29.6,28.4,00.0,38.5,31.5,17.6,0000.0,0007.63,0003.29,0001.92
2022-05-18 02:32:00,,0825.7,5.00,0.00,29.6,28.5,00.0,38.5,31.5,17.5,0000.0,0007.62,0003.28,0001.91
2022-05-18 02:33:00,,0825.7,5.00,0.00,29.6,28.6,00.0,38.5,31.5,17.4,0000.0,0007.12,0003.29,0001.91
2022-05-18 02:34:00,,0825.8,5.00,0.00,29.7,28.6,00.0,38.6,31.6,17.4,0000.0,0007.12,0003.30,0001.91
2022-05-18 02:35:00,,0825.9,5.00,0.00,29.7,28.7,00.0,38.6,31.6,17.3,0000.0,0007.09,0003.27,0001.90
2022-05-18 02:36:00,,0825.9,5.00,0.00,29.7,28.3,00.0,38.6,31.6,17.3,0000.0,0008.19,0003.32,0001.91
2022-05-18 02:37:00,,0825.9,5.00,0.00,29.7,25.9,00.0,38.5,31.5,17.3,0000.0,0008.22,0003.33,0001.94
2022-05-18 02:38:00,,0826.0,5.00,0.00,29.6,25.3,00.0,38.5,31.3,17.4,0000.0,0008.29,0003.35,0001.95
2022-05-18 02:39:00,,0826.0,5.01,0.00,29.6,25.7,00.0,38.5,31.2,17.5,0000.0,0008.58,0003.39,0001.97
2022-05-18 02:40:00,,0826.1,4.99,0.00,29.5,26.1,00.0,38.5,31.2,17.5,0000.0,0008.73,0003.37,0001.97
2022-05-18 02:41:00,,0826.1,5.01,0.00,29.4,26.5,00.0,38.5,31.2,17.6,0000.0,0008.83,0003.41,0002.00
2022-05-18 02:42:00,,0826.1,4.99,0.00,29.4,26.9,00.0,38.5,31.2,17.6,0000.0,0008.95,0003.45,0002.01
2022-05-18 02:43:00,,0826.1,5.00,0.00,29.4,27.2,00.0,38.5,31.2,17.6,0000.0,0008.94,0003.45,0002.03
2022-05-18 02:44:00,,0826.0,4.99,0.00,29.4,27.5,00.0,38.5,31.3,17.5,0000.0,0008.91,0003.45,0002.06
2022-05-18 02:45:00,,0826.1,5.00,0.00,29.4,27.7,00.0,38.5,31.3,17.3,0000.0,0008.92,0003.50,0002.13
2022-05-18 02:46:00,,0826.1,5.01,0.00,29.5,27.9,00.0,38.5,31.3,17.3,0000.0,0008.85,0003.53,0002.18
2022-05-18 02:47:00,,0826.1,4.99,0.00,29.5,28.0,00.0,38.5,31.4,17.2,0000.0,0008.17,0003.53,0002.24
2022-05-18 02:48:00,,0826.2,5.00,0.00,29.5,28.2,00.0,38.5,31.4,17.2,0000.0,0008.41,0003.57,0002.32
2022-05-18 02:49:00,,0826.1,5.00,0.00,29.5,28.3,00.0,38.5,31.4,17.2,0000.0,0008.64,0003.69,0002.42
2022-05-18 02:50:00,,0826.1,4.99,0.00,29.6,28.4,00.0,38.5,31.5,17.2,0000.0,0008.56,0003.74,0002.48
2022-05-18 02:51:00,,0826.3,4.99,0.00,29.6,28.4,00.0,38.5,31.5,17.2,0000.0,0008.15,0003.78,0002.53
2022-05-18 02:52:00,,0826.2,5.00,0.00,29.6,28.5,00.0,38.5,31.5,17.1,0000.0,0008.15,0003.80,0002.60
2022-05-18 02:53:00,,0826.1,5.00,0.00,29.6,28.6,00.0,38.6,31.5,17.1,0000.0,0008.09,0003.79,0002.65
2022-05-18 02:54:00,,0826.1,5.01,0.00,29.7,28.6,00.0,38.6,31.6,17.1,0000.0,0008.37,0003.82,0002.70
2022-05-18 02:55:00,,0826.2,5.00,0.00,29.7,28.7,00.0,38.6,31.6,17.2,0000.0,0008.92,0003.85,0002.75
2022-05-18 02:56:00,,0826.2,5.01,0.00,29.7,28.5,00.0,38.6,31.6,17.2,0000.0,0009.21,0003.84,0002.72
2022-05-18 02:57:00,,0826.2,5.01,0.00,29.7,26.4,00.0,38.6,31.5,17.4,0000.0,0009.34,0003.80,0002.68
2022-05-18 02:58:00,,0826.2,4.99,0.00,29.7,25.2,00.0,38.5,31.4,17.4,0000.0,0009.35,0003.76,0002.64
2022-05-18 02:59:00,,0826.2,5.00,0.00,29.6,25.5,00.0,38.5,31.3,17.4,0000.0,0009.03,0003.75,0002.59
